Wetterdaten: Samstag, 26.12.2015
Datum Zeit Temp. A. Feuchte A. Luftdruck Regen Wind Richtung Richtung Sonnenschein ET UV Solar Taupunkt Windchill Windben Empfang
26.12.2015 00:00 0,8 C 96 % 1033,3 hPa 0,0 l/m 1,1 km/h (1 Bft) N 9 0 min 0,000 mm 0,0 UV-I 0 W/m 0,2 C 0,8 C 3,2 km/h (1 Bft) 97,25 %
26.12.2015 00:05 0,7 C 97 % 1033,2 hPa 0,0 l/m 0,3 km/h (0 Bft) N 9 0 min 0,000 mm 0,0 UV-I 0 W/m 0,3 C 0,7 C 1,6 km/h (1 Bft) 97,32 %
26.12.2015 00:10 1,2 C 97 % 1033,2 hPa 0,0 l/m 0,5 km/h (0 Bft) N 9 0 min 0,000 mm 0,0 UV-I 0 W/m 0,8 C 1,2 C 3,2 km/h (1 Bft) 95,83 %
26.12.2015 00:15 1,2 C 97 % 1033,2 hPa 0,0 l/m 1,1 km/h (1 Bft) N 9 0 min 0,000 mm 0,0 UV-I 0 W/m 0,8 C 1,2 C 3,2 km/h (1 Bft) 95,76 %
26.12.2015 00:20 1,1 C 97 % 1033,3 hPa 0,0 l/m 1,5 km/h (1 Bft) N 5 0 min 0,000 mm 0,0 UV-I 0 W/m 0,7 C 1,1 C 3,2 km/h (1 Bft) 96,33 %
26.12.2015 00:25 1,1 C 97 % 1033,3 hPa 0,0 l/m 1,0 km/h (0 Bft) O-SO 117 0 min 0,000 mm 0,0 UV-I 0 W/m 0,7 C 1,1 C 1,6 km/h (1 Bft) 98,33 %
26.12.2015 00:30 0,8 C 96 % 1033,3 hPa 0,0 l/m 2,9 km/h (1 Bft) S 180 0 min 0,000 mm 0,0 UV-I 0 W/m 0,2 C 0,8 C 6,4 km/h (2 Bft) 98,35 %
26.12.2015 00:35 0,9 C 97 % 1033,3 hPa 0,0 l/m 3,5 km/h (1 Bft) S 182 0 min 0,000 mm 0,0 UV-I 0 W/m 0,5 C 0,9 C 4,8 km/h (1 Bft) 99,17 %
26.12.2015 00:40 1,4 C 97 % 1033,3 hPa 0,0 l/m 3,9 km/h (1 Bft) S 190 0 min 0,000 mm 0,0 UV-I 0 W/m 1,0 C 1,4 C 4,8 km/h (1 Bft) 98,21 %
26.12.2015 00:45 1,3 C 98 % 1033,3 hPa 0,0 l/m 4,3 km/h (1 Bft) S-SW 197 0 min 0,000 mm 0,0 UV-I 0 W/m 1,0 C 1,3 C 4,8 km/h (1 Bft) 100,00 %
26.12.2015 00:50 1,5 C 97 % 1033,3 hPa 0,0 l/m 3,4 km/h (1 Bft) S 169 0 min 0,000 mm 0,0 UV-I 0 W/m 1,1 C 1,5 C 6,4 km/h (2 Bft) 98,29 %
26.12.2015 00:55 1,7 C 98 % 1033,2 hPa 0,0 l/m 2,3 km/h (1 Bft) S-SO 167 0 min 0,000 mm 0,0 UV-I 0 W/m 1,4 C 1,7 C 4,8 km/h (1 Bft) 100,00 %
26.12.2015 01:00 1,7 C 98 % 1033,2 hPa 0,0 l/m 1,0 km/h (0 Bft) S-SO 167 0 min 0,000 mm 0,0 UV-I 0 W/m 1,4 C 1,7 C 4,8 km/h (1 Bft) 100,00 %
26.12.2015 01:05 1,7 C 97 % 1033,2 hPa 0,0 l/m 0,8 km/h (0 Bft) S-SO 167 0 min 0,000 mm 0,0 UV-I 0 W/m 1,3 C 1,7 C 4,8 km/h (1 Bft) 99,15 %
26.12.2015 01:10 1,6 C 97 % 1033,1 hPa 0,0 l/m 0,5 km/h (0 Bft) O-NO 69 0 min 0,000 mm 0,0 UV-I 0 W/m 1,2 C 1,6 C 4,8 km/h (1 Bft) 97,52 %
26.12.2015 01:15 1,3 C 97 % 1033,1 hPa 0,0 l/m 3,2 km/h (1 Bft) O-NO 68 0 min 0,000 mm 0,0 UV-I 0 W/m 0,9 C 1,3 C 4,8 km/h (1 Bft) 100,00 %
26.12.2015 01:20 0,9 C 97 % 1033,2 hPa 0,0 l/m 2,9 km/h (1 Bft) O-NO 68 0 min 0,000 mm 0,0 UV-I 0 W/m 0,5 C 0,9 C 4,8 km/h (1 Bft) 99,15 %
26.12.2015 01:25 0,9 C 97 % 1033,2 hPa 0,0 l/m 2,8 km/h (1 Bft) O-NO 69 0 min 0,000 mm 0,0 UV-I 0 W/m 0,5 C 0,9 C 4,8 km/h (1 Bft) 99,15 %
26.12.2015 01:30 0,8 C 97 % 1033,1 hPa 0,0 l/m 4,3 km/h (1 Bft) O-SO 108 0 min 0,000 mm 0,0 UV-I 0 W/m 0,4 C 0,8 C 6,4 km/h (2 Bft) 100,00 %
26.12.2015 01:35 0,7 C 97 % 1033,1 hPa 0,0 l/m 2,3 km/h (1 Bft) O-SO 108 0 min 0,000 mm 0,0 UV-I 0 W/m 0,3 C 0,7 C 3,2 km/h (1 Bft) 98,29 %
26.12.2015 01:40 0,8 C 97 % 1033,1 hPa 0,0 l/m 0,5 km/h (0 Bft) O-SO 108 0 min 0,000 mm 0,0 UV-I 0 W/m 0,4 C 0,8 C 3,2 km/h (1 Bft) 100,00 %
26.12.2015 01:45 0,9 C 97 % 1033,2 hPa 0,0 l/m 0,0 km/h (0 Bft) O-SO 108 0 min 0,000 mm 0,0 UV-I 0 W/m 0,5 C 0,9 C 1,6 km/h (1 Bft) 98,29 %
26.12.2015 01:50 0,9 C 97 % 1033,2 hPa 0,0 l/m 0,0 km/h (0 Bft) O-SO 108 0 min 0,000 mm 0,0 UV-I 0 W/m 0,5 C 0,9 C 1,6 km/h (1 Bft) 99,15 %
26.12.2015 01:55 0,7 C 97 % 1033,2 hPa 0,0 l/m 0,9 km/h (0 Bft) O-SO 108 0 min 0,000 mm 0,0 UV-I 0 W/m 0,3 C 0,7 C 3,2 km/h (1 Bft) 100,00 %
26.12.2015 02:00 0,6 C 97 % 1033,2 hPa 0,0 l/m 0,1 km/h (0 Bft) O-SO 108 0 min 0,000 mm 0,0 UV-I 0 W/m 0,2 C 0,6 C 1,6 km/h (1 Bft) 98,29 %
26.12.2015 02:05 0,6 C 97 % 1033,2 hPa 0,0 l/m 1,7 km/h (1 Bft) O-SO 108 0 min 0,000 mm 0,0 UV-I 0 W/m 0,2 C 0,6 C 3,2 km/h (1 Bft) 97,46 %
26.12.2015 02:10 0,6 C 97 % 1033,2 hPa 0,0 l/m 1,4 km/h (1 Bft) O-SO 108 0 min 0,000 mm 0,0 UV-I 0 W/m 0,2 C 0,6 C 3,2 km/h (1 Bft) 95,80 %
26.12.2015 02:15 0,6 C 97 % 1033,4 hPa 0,0 l/m 0,9 km/h (0 Bft) O-SO 108 0 min 0,000 mm 0,0 UV-I 0 W/m 0,2 C 0,6 C 3,2 km/h (1 Bft) 96,61 %
26.12.2015 02:20 0,7 C 98 % 1033,4 hPa 0,0 l/m 0,6 km/h (0 Bft) O-SO 108 0 min 0,000 mm 0,0 UV-I 0 W/m 0,4 C 0,7 C 3,2 km/h (1 Bft) 97,46 %
26.12.2015 02:25 0,6 C 98 % 1033,5 hPa 0,0 l/m 0,1 km/h (0 Bft) O-SO 108 0 min 0,000 mm 0,0 UV-I 0 W/m 0,3 C 0,6 C 1,6 km/h (1 Bft) 95,73 %
26.12.2015 02:30 0,7 C 98 % 1033,5 hPa 0,0 l/m 0,8 km/h (0 Bft) O-SO 108 0 min 0,000 mm 0,0 UV-I 0 W/m 0,4 C 0,7 C 3,2 km/h (1 Bft) 96,23 %
26.12.2015 02:35 0,7 C 98 % 1033,5 hPa 0,0 l/m 1,6 km/h (1 Bft) O-SO 108 0 min 0,000 mm 0,0 UV-I 0 W/m 0,4 C 0,7 C 3,2 km/h (1 Bft) 97,52 %
26.12.2015 02:40 0,6 C 97 % 1033,5 hPa 0,0 l/m 1,6 km/h (1 Bft) O-SO 108 0 min 0,000 mm 0,0 UV-I 0 W/m 0,2 C 0,6 C 3,2 km/h (1 Bft) 96,58 %
26.12.2015 02:45 0,7 C 98 % 1033,5 hPa 0,0 l/m 1,7 km/h (1 Bft) O 96 0 min 0,000 mm 0,0 UV-I 0 W/m 0,4 C 0,7 C 3,2 km/h (1 Bft) 99,15 %
26.12.2015 02:50 0,7 C 98 % 1033,5 hPa 0,0 l/m 2,2 km/h (1 Bft) O 94 0 min 0,000 mm 0,0 UV-I 0 W/m 0,4 C 0,7 C 3,2 km/h (1 Bft) 100,00 %
26.12.2015 02:55 0,5 C 97 % 1033,5 hPa 0,0 l/m 1,4 km/h (1 Bft) O 94 0 min 0,000 mm 0,0 UV-I 0 W/m 0,1 C 0,5 C 3,2 km/h (1 Bft) 98,21 %
26.12.2015 03:00 0,4 C 97 % 1033,6 hPa 0,0 l/m 0,5 km/h (0 Bft) O 94 0 min 0,000 mm 0,0 UV-I 0 W/m -0,0 C 0,4 C 1,6 km/h (1 Bft) 95,76 %
26.12.2015 03:05 0,3 C 97 % 1033,5 hPa 0,0 l/m 0,0 km/h (0 Bft) O 94 0 min 0,000 mm 0,0 UV-I 0 W/m -0,1 C 0,3 C 0,0 km/h (0 Bft) 99,17 %
26.12.2015 03:10 0,1 C 97 % 1033,5 hPa 0,0 l/m 0,4 km/h (0 Bft) O 94 0 min 0,000 mm 0,0 UV-I 0 W/m -0,3 C 0,1 C 3,2 km/h (1 Bft) 99,15 %
26.12.2015 03:15 0,2 C 97 % 1033,4 hPa 0,0 l/m 0,3 km/h (0 Bft) O 94 0 min 0,000 mm 0,0 UV-I 0 W/m -0,2 C 0,2 C 1,6 km/h (1 Bft) 97,46 %
26.12.2015 03:20 0,1 C 97 % 1033,3 hPa 0,0 l/m 0,4 km/h (0 Bft) O-SO 105 0 min 0,000 mm 0,0 UV-I 0 W/m -0,3 C 0,1 C 1,6 km/h (1 Bft) 100,00 %
26.12.2015 03:25 0,3 C 98 % 1033,3 hPa 0,0 l/m 1,9 km/h (1 Bft) S-SO 160 0 min 0,000 mm 0,0 UV-I 0 W/m 0,0 C 0,3 C 6,4 km/h (2 Bft) 99,15 %
26.12.2015 03:30 0,4 C 98 % 1033,3 hPa 0,0 l/m 2,2 km/h (1 Bft) S-SO 160 0 min 0,000 mm 0,0 UV-I 0 W/m 0,1 C 0,4 C 3,2 km/h (1 Bft) 98,29 %
26.12.2015 03:35 0,6 C 98 % 1033,3 hPa 0,0 l/m 1,1 km/h (1 Bft) S-SO 160 0 min 0,000 mm 0,0 UV-I 0 W/m 0,3 C 0,6 C 3,2 km/h (1 Bft) 99,15 %
26.12.2015 03:40 0,6 C 98 % 1033,5 hPa 0,0 l/m 0,2 km/h (0 Bft) S-SO 160 0 min 0,000 mm 0,0 UV-I 0 W/m 0,3 C 0,6 C 1,6 km/h (1 Bft) 100,00 %
26.12.2015 03:45 0,6 C 98 % 1033,4 hPa 0,0 l/m 0,2 km/h (0 Bft) S-SO 160 0 min 0,000 mm 0,0 UV-I 0 W/m 0,3 C 0,6 C 1,6 km/h (1 Bft) 99,07 %
26.12.2015 03:50 0,7 C 98 % 1033,4 hPa 0,0 l/m 0,8 km/h (0 Bft) S-SO 160 0 min 0,000 mm 0,0 UV-I 0 W/m 0,4 C 0,7 C 1,6 km/h (1 Bft) 99,15 %
26.12.2015 03:55 0,8 C 98 % 1033,3 hPa 0,0 l/m 1,5 km/h (1 Bft) S-SO 159 0 min 0,000 mm 0,0 UV-I 0 W/m 0,5 C 0,8 C 3,2 km/h (1 Bft) 99,16 %
26.12.2015 04:00 0,7 C 98 % 1033,3 hPa 0,0 l/m 3,8 km/h (1 Bft) S-SO 150 0 min 0,000 mm 0,0 UV-I 0 W/m 0,4 C 0,7 C 6,4 km/h (2 Bft) 98,37 %
26.12.2015 04:05 0,5 C 98 % 1033,3 hPa 0,0 l/m 2,6 km/h (1 Bft) S-SO 148 0 min 0,000 mm 0,0 UV-I 0 W/m 0,2 C 0,5 C 6,4 km/h (2 Bft) 100,00 %
26.12.2015 04:10 0,3 C 98 % 1033,3 hPa 0,0 l/m 1,8 km/h (1 Bft) S-SO 148 0 min 0,000 mm 0,0 UV-I 0 W/m 0,0 C 0,3 C 3,2 km/h (1 Bft) 99,17 %
26.12.2015 04:15 -0,2 C 97 % 1033,3 hPa 0,0 l/m 2,3 km/h (1 Bft) S-SO 148 0 min 0,000 mm 0,0 UV-I 0 W/m -0,6 C -0,2 C 4,8 km/h (1 Bft) 99,15 %
26.12.2015 04:20 -0,3 C 97 % 1033,4 hPa 0,0 l/m 4,4 km/h (1 Bft) S-SW 201 0 min 0,000 mm 0,0 UV-I 0 W/m -0,7 C -0,3 C 6,4 km/h (2 Bft) 96,69 %
26.12.2015 04:25 0,1 C 98 % 1033,3 hPa 0,0 l/m 3,9 km/h (1 Bft) S 189 0 min 0,000 mm 0,0 UV-I 0 W/m -0,2 C 0,1 C 4,8 km/h (1 Bft) 95,73 %
26.12.2015 04:30 0,3 C 98 % 1033,5 hPa 0,0 l/m 2,3 km/h (1 Bft) W-NW 296 0 min 0,000 mm 0,0 UV-I 0 W/m 0,0 C 0,3 C 4,8 km/h (1 Bft) 97,46 %
26.12.2015 04:35 0,5 C 98 % 1033,4 hPa 0,0 l/m 1,1 km/h (1 Bft) W-NW 296 0 min 0,000 mm 0,0 UV-I 0 W/m 0,2 C 0,5 C 3,2 km/h (1 Bft) 97,17 %
26.12.2015 04:40 0,7 C 98 % 1033,4 hPa 0,0 l/m 1,2 km/h (1 Bft) W-NW 296 0 min 0,000 mm 0,0 UV-I 0 W/m 0,4 C 0,7 C 3,2 km/h (1 Bft) 95,00 %
26.12.2015 04:45 0,4 C 98 % 1033,2 hPa 0,0 l/m 2,3 km/h (1 Bft) W-SW 237 0 min 0,000 mm 0,0 UV-I 0 W/m 0,1 C 0,4 C 3,2 km/h (1 Bft) 97,46 %
26.12.2015 04:50 0,3 C 98 % 1033,2 hPa 0,0 l/m 2,0 km/h (1 Bft) W-SW 237 0 min 0,000 mm 0,0 UV-I 0 W/m 0,0 C 0,3 C 3,2 km/h (1 Bft) 96,67 %
26.12.2015 04:55 0,5 C 98 % 1033,2 hPa 0,0 l/m 2,5 km/h (1 Bft) W-SW 237 0 min 0,000 mm 0,0 UV-I 0 W/m 0,2 C 0,5 C 3,2 km/h (1 Bft) 95,76 %
26.12.2015 05:00 0,2 C 97 % 1033,2 hPa 0,0 l/m 3,4 km/h (1 Bft) SW 227 0 min 0,000 mm 0,0 UV-I 0 W/m -0,2 C 0,2 C 6,4 km/h (2 Bft) 98,31 %
26.12.2015 05:05 0,1 C 97 % 1033,2 hPa 0,0 l/m 4,3 km/h (1 Bft) SW 215 0 min 0,000 mm 0,0 UV-I 0 W/m -0,3 C 0,1 C 6,4 km/h (2 Bft) 99,06 %
26.12.2015 05:10 0,3 C 98 % 1033,2 hPa 0,0 l/m 2,7 km/h (1 Bft) SW 215 0 min 0,000 mm 0,0 UV-I 0 W/m 0,0 C 0,3 C 4,8 km/h (1 Bft) 98,37 %
26.12.2015 05:15 0,3 C 98 % 1033,1 hPa 0,0 l/m 3,3 km/h (1 Bft) SW 215 0 min 0,000 mm 0,0 UV-I 0 W/m 0,0 C 0,3 C 4,8 km/h (1 Bft) 99,15 %
26.12.2015 05:20 0,4 C 98 % 1033,2 hPa 0,0 l/m 3,1 km/h (1 Bft) SW 215 0 min 0,000 mm 0,0 UV-I 0 W/m 0,1 C 0,4 C 4,8 km/h (1 Bft) 100,00 %
26.12.2015 05:25 0,2 C 98 % 1033,1 hPa 0,0 l/m 3,0 km/h (1 Bft) S-SW 202 0 min 0,000 mm 0,0 UV-I 0 W/m -0,1 C 0,2 C 4,8 km/h (1 Bft) 98,31 %
26.12.2015 05:30 0,5 C 98 % 1033,1 hPa 0,0 l/m 1,9 km/h (1 Bft) S 188 0 min 0,000 mm 0,0 UV-I 0 W/m 0,2 C 0,5 C 4,8 km/h (1 Bft) 98,29 %
26.12.2015 05:35 0,6 C 98 % 1033,2 hPa 0,0 l/m 0,4 km/h (0 Bft) S 188 0 min 0,000 mm 0,0 UV-I 0 W/m 0,3 C 0,6 C 1,6 km/h (1 Bft) 100,00 %
26.12.2015 05:40 0,6 C 98 % 1033,1 hPa 0,0 l/m 2,8 km/h (1 Bft) O-SO 107 0 min 0,000 mm 0,0 UV-I 0 W/m 0,3 C 0,6 C 4,8 km/h (1 Bft) 98,33 %
26.12.2015 05:45 0,4 C 98 % 1033,0 hPa 0,0 l/m 3,5 km/h (1 Bft) O-SO 111 0 min 0,000 mm 0,0 UV-I 0 W/m 0,1 C 0,4 C 4,8 km/h (1 Bft) 99,15 %
26.12.2015 05:50 0,3 C 98 % 1032,9 hPa 0,0 l/m 5,6 km/h (1 Bft) SO 126 0 min 0,000 mm 0,0 UV-I 0 W/m 0,0 C 0,3 C 8,0 km/h (2 Bft) 97,46 %
26.12.2015 05:55 0,2 C 97 % 1033,0 hPa 0,0 l/m 3,1 km/h (1 Bft) O 80 0 min 0,000 mm 0,0 UV-I 0 W/m -0,2 C 0,2 C 6,4 km/h (2 Bft) 99,15 %
26.12.2015 06:00 -0,3 C 97 % 1033,1 hPa 0,0 l/m 2,4 km/h (1 Bft) N-NO 15 0 min 0,000 mm 0,0 UV-I 0 W/m -0,7 C -0,3 C 8,0 km/h (2 Bft) 100,00 %
26.12.2015 06:05 -0,6 C 97 % 1033,2 hPa 0,0 l/m 1,0 km/h (0 Bft) N-NO 15 0 min 0,000 mm 0,0 UV-I 0 W/m -1,0 C -0,6 C 4,8 km/h (1 Bft) 100,00 %
26.12.2015 06:10 -0,3 C 98 % 1033,1 hPa 0,0 l/m 3,9 km/h (1 Bft) NO 48 0 min 0,000 mm 0,0 UV-I 0 W/m -0,6 C -0,3 C 6,4 km/h (2 Bft) 97,44 %
26.12.2015 06:15 -0,1 C 98 % 1033,3 hPa 0,0 l/m 1,8 km/h (1 Bft) NO 51 0 min 0,000 mm 0,0 UV-I 0 W/m -0,4 C -0,1 C 6,4 km/h (2 Bft) 99,15 %
26.12.2015 06:20 -0,1 C 98 % 1033,3 hPa 0,0 l/m 1,8 km/h (1 Bft) O 79 0 min 0,000 mm 0,0 UV-I 0 W/m -0,4 C -0,1 C 4,8 km/h (1 Bft) 100,00 %
26.12.2015 06:25 -0,3 C 98 % 1033,3 hPa 0,0 l/m 1,9 km/h (1 Bft) O-NO 65 0 min 0,000 mm 0,0 UV-I 0 W/m -0,6 C -0,3 C 4,8 km/h (1 Bft) 97,22 %
26.12.2015 06:30 -0,3 C 97 % 1033,3 hPa 0,0 l/m 0,7 km/h (0 Bft) O-NO 65 0 min 0,000 mm 0,0 UV-I 0 W/m -0,7 C -0,3 C 3,2 km/h (1 Bft) 99,15 %
26.12.2015 06:35 -0,4 C 97 % 1033,3 hPa 0,0 l/m 0,0 km/h (0 Bft) O-NO 65 0 min 0,000 mm 0,0 UV-I 0 W/m -0,8 C -0,4 C 1,6 km/h (1 Bft) 100,00 %
26.12.2015 06:40 -0,5 C 97 % 1033,3 hPa 0,0 l/m 1,1 km/h (1 Bft) O-NO 78 0 min 0,000 mm 0,0 UV-I 0 W/m -0,9 C -0,5 C 3,2 km/h (1 Bft) 96,67 %
26.12.2015 06:45 -0,5 C 98 % 1033,3 hPa 0,0 l/m 0,9 km/h (0 Bft) O-NO 78 0 min 0,000 mm 0,0 UV-I 0 W/m -0,8 C -0,5 C 3,2 km/h (1 Bft) 97,46 %
26.12.2015 06:50 -0,5 C 97 % 1033,3 hPa 0,0 l/m 0,8 km/h (0 Bft) O-NO 78 0 min 0,000 mm 0,0 UV-I 0 W/m -0,9 C -0,5 C 3,2 km/h (1 Bft) 96,67 %
26.12.2015 06:55 -0,5 C 98 % 1033,4 hPa 0,0 l/m 1,3 km/h (1 Bft) O-NO 78 0 min 0,000 mm 0,0 UV-I 0 W/m -0,8 C -0,5 C 3,2 km/h (1 Bft) 96,23 %
26.12.2015 07:00 -0,6 C 98 % 1033,3 hPa 0,0 l/m 0,2 km/h (0 Bft) O-NO 78 0 min 0,000 mm 0,0 UV-I 0 W/m -0,9 C -0,6 C 1,6 km/h (1 Bft) 96,61 %
26.12.2015 07:05 -0,7 C 97 % 1033,3 hPa 0,0 l/m 2,9 km/h (1 Bft) SW 220 0 min 0,000 mm 0,0 UV-I 0 W/m -1,1 C -0,7 C 4,8 km/h (1 Bft) 97,56 %
26.12.2015 07:10 -0,5 C 98 % 1033,2 hPa 0,0 l/m 3,7 km/h (1 Bft) S-SW 196 0 min 0,000 mm 0,0 UV-I 0 W/m -0,8 C -0,5 C 4,8 km/h (1 Bft) 97,46 %
26.12.2015 07:15 -0,5 C 98 % 1033,1 hPa 0,0 l/m 4,9 km/h (1 Bft) S-SW 199 0 min 0,000 mm 0,0 UV-I 0 W/m -0,8 C -0,5 C 6,4 km/h (2 Bft) 99,15 %
26.12.2015 07:20 -0,5 C 98 % 1033,1 hPa 0,0 l/m 6,1 km/h (2 Bft) S-SW 194 0 min 0,000 mm 0,0 UV-I 0 W/m -0,8 C -0,5 C 8,0 km/h (2 Bft) 98,33 %
26.12.2015 07:25 -0,4 C 98 % 1033,1 hPa 0,0 l/m 6,2 km/h (2 Bft) S 185 0 min 0,000 mm 0,0 UV-I 0 W/m -0,7 C -0,4 C 8,0 km/h (2 Bft) 100,00 %
26.12.2015 07:30 -0,2 C 98 % 1033,1 hPa 0,0 l/m 5,4 km/h (1 Bft) S-SO 165 0 min 0,000 mm 0,0 UV-I 0 W/m -0,5 C -0,2 C 8,0 km/h (2 Bft) 99,15 %
26.12.2015 07:35 -0,1 C 98 % 1033,0 hPa 0,0 l/m 3,0 km/h (1 Bft) S-SO 166 0 min 0,000 mm 0,0 UV-I 0 W/m -0,4 C -0,1 C 8,0 km/h (2 Bft) 98,29 %
26.12.2015 07:40 0,0 C 98 % 1033,1 hPa 0,0 l/m 2,4 km/h (1 Bft) S 169 0 min 0,000 mm 0,0 UV-I 1 W/m -0,3 C 0,0 C 6,4 km/h (2 Bft) 100,00 %
26.12.2015 07:45 0,2 C 98 % 1033,1 hPa 0,0 l/m 3,3 km/h (1 Bft) O-SO 105 0 min 0,000 mm 0,0 UV-I 6 W/m -0,1 C 0,2 C 6,4 km/h (2 Bft) 100,00 %
26.12.2015 07:50 0,3 C 98 % 1033,3 hPa 0,0 l/m 5,6 km/h (1 Bft) NO 55 0 min 0,000 mm 0,0 UV-I 9 W/m 0,0 C 0,3 C 8,0 km/h (2 Bft) 98,35 %
26.12.2015 07:55 0,2 C 98 % 1033,2 hPa 0,0 l/m 2,8 km/h (1 Bft) O-SO 122 0 min 0,000 mm 0,0 UV-I 9 W/m -0,1 C 0,2 C 4,8 km/h (1 Bft) 100,00 %
26.12.2015 08:00 0,1 C 98 % 1033,3 hPa 0,0 l/m 0,8 km/h (0 Bft) O-SO 122 0 min 0,000 mm 0,0 UV-I 11 W/m -0,2 C 0,1 C 3,2 km/h (1 Bft) 100,00 %
26.12.2015 08:05 -0,2 C 97 % 1033,3 hPa 0,0 l/m 3,6 km/h (1 Bft) NO 51 0 min 0,000 mm 0,0 UV-I 13 W/m -0,6 C -0,2 C 8,0 km/h (2 Bft) 99,15 %
26.12.2015 08:10 -0,6 C 97 % 1033,3 hPa 0,0 l/m 2,1 km/h (1 Bft) O-NO 71 5 min 0,000 mm 0,0 UV-I 15 W/m -1,0 C -0,6 C 4,8 km/h (1 Bft) 100,00 %
26.12.2015 08:15 -0,8 C 97 % 1033,3 hPa 0,0 l/m 0,3 km/h (0 Bft) O-NO 70 0 min 0,000 mm 0,0 UV-I 17 W/m -1,2 C -0,8 C 1,6 km/h (1 Bft) 98,31 %
26.12.2015 08:20 -0,9 C 97 % 1033,4 hPa 0,0 l/m 0,1 km/h (0 Bft) O-NO 70 0 min 0,000 mm 0,0 UV-I 18 W/m -1,3 C -0,9 C 1,6 km/h (1 Bft) 98,17 %
26.12.2015 08:25 -1,1 C 97 % 1033,3 hPa 0,0 l/m 0,6 km/h (0 Bft) O-NO 70 0 min 0,000 mm 0,0 UV-I 19 W/m -1,5 C -1,1 C 3,2 km/h (1 Bft) 97,44 %
26.12.2015 08:30 -1,0 C 97 % 1033,3 hPa 0,0 l/m 0,1 km/h (0 Bft) O-NO 70 0 min 0,000 mm 0,0 UV-I 22 W/m -1,4 C -1,0 C 1,6 km/h (1 Bft) 97,46 %
26.12.2015 08:35 -0,9 C 98 % 1033,2 hPa 0,0 l/m 0,3 km/h (0 Bft) O-NO 70 0 min 0,000 mm 0,0 UV-I 30 W/m -1,2 C -0,9 C 1,6 km/h (1 Bft) 99,15 %
26.12.2015 08:40 -0,9 C 98 % 1033,3 hPa 0,0 l/m 0,3 km/h (0 Bft) O-NO 70 0 min 0,000 mm 0,0 UV-I 45 W/m -1,2 C -0,9 C 1,6 km/h (1 Bft) 100,00 %
26.12.2015 08:45 -0,8 C 98 % 1033,3 hPa 0,0 l/m 0,2 km/h (0 Bft) O-NO 70 5 min 0,000 mm 0,0 UV-I 62 W/m -1,1 C -0,8 C 1,6 km/h (1 Bft) 97,46 %
26.12.2015 08:50 -0,7 C 98 % 1033,3 hPa 0,0 l/m 2,3 km/h (1 Bft) N-NO 22 5 min 0,000 mm 0,0 UV-I 71 W/m -1,0 C -0,7 C 4,8 km/h (1 Bft) 95,76 %
26.12.2015 08:55 -0,6 C 98 % 1033,3 hPa 0,0 l/m 1,3 km/h (1 Bft) N-NO 22 5 min 0,000 mm 0,0 UV-I 80 W/m -0,9 C -0,6 C 3,2 km/h (1 Bft) 97,50 %
26.12.2015 09:00 -0,3 C 98 % 1033,3 hPa 0,0 l/m 1,3 km/h (1 Bft) N-NO 22 5 min 0,025 mm 0,0 UV-I 90 W/m -0,6 C -0,3 C 3,2 km/h (1 Bft) 96,61 %
26.12.2015 09:05 -0,1 C 98 % 1033,2 hPa 0,0 l/m 0,9 km/h (0 Bft) O-NO 67 5 min 0,000 mm 0,0 UV-I 100 W/m -0,4 C -0,1 C 3,2 km/h (1 Bft) 95,83 %
26.12.2015 09:10 0,1 C 98 % 1033,2 hPa 0,0 l/m 0,8 km/h (0 Bft) O-SO 111 5 min 0,000 mm 0,0 UV-I 109 W/m -0,2 C 0,1 C 3,2 km/h (1 Bft) 98,17 %
26.12.2015 09:15 0,3 C 98 % 1033,2 hPa 0,0 l/m 2,2 km/h (1 Bft) SW 219 5 min 0,000 mm 0,0 UV-I 106 W/m 0,0 C 0,3 C 3,2 km/h (1 Bft) 99,15 %
26.12.2015 09:20 0,3 C 98 % 1033,3 hPa 0,0 l/m 0,3 km/h (0 Bft) SW 221 0 min 0,000 mm 0,0 UV-I 90 W/m 0,0 C 0,3 C 1,6 km/h (1 Bft) 95,83 %
26.12.2015 09:25 0,5 C 98 % 1033,3 hPa 0,0 l/m 0,7 km/h (0 Bft) SW 221 5 min 0,000 mm 0,0 UV-I 106 W/m 0,2 C 0,5 C 3,2 km/h (1 Bft) 100,00 %
26.12.2015 09:30 0,7 C 98 % 1033,3 hPa 0,0 l/m 3,0 km/h (1 Bft) O-SO 115 5 min 0,000 mm 0,0 UV-I 134 W/m 0,4 C 0,7 C 6,4 km/h (2 Bft) 98,29 %
26.12.2015 09:35 1,0 C 98 % 1033,3 hPa 0,0 l/m 0,9 km/h (0 Bft) O-SO 115 5 min 0,000 mm 0,0 UV-I 155 W/m 0,7 C 1,0 C 3,2 km/h (1 Bft) 99,17 %
26.12.2015 09:40 1,6 C 98 % 1033,2 hPa 0,0 l/m 0,4 km/h (0 Bft) O-SO 115 5 min 0,000 mm 0,0 UV-I 165 W/m 1,3 C 1,6 C 3,2 km/h (1 Bft) 99,06 %
26.12.2015 09:45 1,8 C 97 % 1033,2 hPa 0,0 l/m 0,1 km/h (0 Bft) O-SO 115 5 min 0,000 mm 0,0 UV-I 175 W/m 1,4 C 1,8 C 1,6 km/h (1 Bft) 99,15 %
26.12.2015 09:50 1,9 C 96 % 1033,2 hPa 0,0 l/m 0,2 km/h (0 Bft) O-SO 115 5 min 0,000 mm 0,0 UV-I 184 W/m 1,3 C 1,9 C 1,6 km/h (1 Bft) 97,52 %
26.12.2015 09:55 1,8 C 96 % 1033,2 hPa 0,0 l/m 0,9 km/h (0 Bft) O-SO 115 5 min 0,000 mm 0,0 UV-I 195 W/m 1,2 C 1,8 C 3,2 km/h (1 Bft) 99,15 %
26.12.2015 10:00 2,1 C 96 % 1033,2 hPa 0,0 l/m 0,0 km/h (0 Bft) O-SO 115 5 min 0,000 mm 0,0 UV-I 203 W/m 1,5 C 2,1 C 1,6 km/h (1 Bft) 98,33 %
26.12.2015 10:05 2,4 C 96 % 1033,2 hPa 0,0 l/m 0,0 km/h (0 Bft) O-SO 115 5 min 0,051 mm 0,0 UV-I 212 W/m 1,8 C 2,4 C 0,0 km/h (0 Bft) 98,35 %
26.12.2015 10:10 2,7 C 96 % 1033,1 hPa 0,0 l/m 0,1 km/h (0 Bft) O-SO 115 5 min 0,000 mm 0,0 UV-I 220 W/m 2,1 C 2,7 C 1,6 km/h (1 Bft) 100,00 %
26.12.2015 10:15 3,1 C 95 % 1033,1 hPa 0,0 l/m 0,3 km/h (0 Bft) O-SO 115 5 min 0,000 mm 0,0 UV-I 222 W/m 2,4 C 3,1 C 3,2 km/h (1 Bft) 98,31 %
26.12.2015 10:20 2,9 C 95 % 1033,2 hPa 0,0 l/m 4,5 km/h (1 Bft) NO 37 5 min 0,000 mm 0,0 UV-I 238 W/m 2,2 C 2,9 C 6,4 km/h (2 Bft) 96,61 %
26.12.2015 10:25 2,2 C 94 % 1033,2 hPa 0,0 l/m 5,3 km/h (1 Bft) NO 46 5 min 0,000 mm 0,3 UV-I 243 W/m 1,3 C 2,2 C 6,4 km/h (2 Bft) 100,00 %
26.12.2015 10:30 1,8 C 95 % 1033,2 hPa 0,0 l/m 4,5 km/h (1 Bft) N-NO 26 5 min 0,000 mm 0,5 UV-I 250 W/m 1,1 C 1,8 C 6,4 km/h (2 Bft) 100,00 %
26.12.2015 10:35 1,7 C 96 % 1033,1 hPa 0,0 l/m 3,2 km/h (1 Bft) NO 36 5 min 0,000 mm 0,5 UV-I 247 W/m 1,1 C 1,7 C 4,8 km/h (1 Bft) 99,15 %
26.12.2015 10:40 1,8 C 96 % 1033,0 hPa 0,0 l/m 3,1 km/h (1 Bft) NO 36 5 min 0,000 mm 0,5 UV-I 252 W/m 1,2 C 1,8 C 4,8 km/h (1 Bft) 98,29 %
26.12.2015 10:45 2,0 C 96 % 1033,1 hPa 0,0 l/m 2,8 km/h (1 Bft) N-NO 24 5 min 0,000 mm 0,5 UV-I 265 W/m 1,4 C 2,0 C 4,8 km/h (1 Bft) 98,31 %
26.12.2015 10:50 2,4 C 96 % 1032,9 hPa 0,0 l/m 2,6 km/h (1 Bft) NO 51 5 min 0,000 mm 0,6 UV-I 270 W/m 1,8 C 2,4 C 4,8 km/h (1 Bft) 98,29 %
26.12.2015 10:55 2,7 C 96 % 1032,9 hPa 0,0 l/m 1,2 km/h (1 Bft) NO 51 5 min 0,000 mm 0,6 UV-I 278 W/m 2,1 C 2,7 C 3,2 km/h (1 Bft) 96,61 %
26.12.2015 11:00 2,8 C 95 % 1032,9 hPa 0,0 l/m 0,6 km/h (0 Bft) NO 51 5 min 0,102 mm 0,6 UV-I 284 W/m 2,1 C 2,8 C 1,6 km/h (1 Bft) 97,17 %
26.12.2015 11:05 3,3 C 95 % 1032,8 hPa 0,0 l/m 0,8 km/h (0 Bft) NO 51 5 min 0,000 mm 0,6 UV-I 285 W/m 2,6 C 3,3 C 1,6 km/h (1 Bft) 95,83 %
26.12.2015 11:10 3,6 C 95 % 1032,8 hPa 0,0 l/m 0,9 km/h (0 Bft) NO 51 5 min 0,000 mm 0,6 UV-I 277 W/m 2,9 C 3,6 C 1,6 km/h (1 Bft) 97,52 %
26.12.2015 11:15 4,1 C 94 % 1032,6 hPa 0,0 l/m 1,5 km/h (1 Bft) NO 51 5 min 0,000 mm 0,7 UV-I 276 W/m 3,2 C 4,1 C 3,2 km/h (1 Bft) 98,35 %
26.12.2015 11:20 4,3 C 93 % 1032,6 hPa 0,0 l/m 1,1 km/h (1 Bft) NO 51 5 min 0,000 mm 0,7 UV-I 266 W/m 3,3 C 4,3 C 1,6 km/h (1 Bft) 98,29 %
26.12.2015 11:25 4,6 C 94 % 1032,6 hPa 0,0 l/m 1,0 km/h (0 Bft) NO 51 5 min 0,000 mm 0,7 UV-I 266 W/m 3,7 C 4,6 C 3,2 km/h (1 Bft) 100,00 %
26.12.2015 11:30 4,5 C 92 % 1032,6 hPa 0,0 l/m 0,5 km/h (0 Bft) NO 41 5 min 0,000 mm 0,7 UV-I 259 W/m 3,3 C 4,5 C 3,2 km/h (1 Bft) 99,17 %
26.12.2015 11:35 4,7 C 92 % 1032,5 hPa 0,0 l/m 2,1 km/h (1 Bft) NO 37 5 min 0,000 mm 0,7 UV-I 251 W/m 3,5 C 4,7 C 4,8 km/h (1 Bft) 98,31 %
26.12.2015 11:40 4,9 C 92 % 1032,4 hPa 0,0 l/m 3,1 km/h (1 Bft) NO 37 5 min 0,000 mm 0,7 UV-I 262 W/m 3,7 C 4,9 C 4,8 km/h (1 Bft) 99,10 %
26.12.2015 11:45 4,9 C 92 % 1032,4 hPa 0,0 l/m 3,1 km/h (1 Bft) NO 37 5 min 0,000 mm 0,7 UV-I 276 W/m 3,7 C 4,9 C 4,8 km/h (1 Bft) 100,00 %
26.12.2015 11:50 5,2 C 92 % 1032,3 hPa 0,0 l/m 2,2 km/h (1 Bft) NO 37 5 min 0,000 mm 0,7 UV-I 286 W/m 4,0 C 5,2 C 4,8 km/h (1 Bft) 100,00 %
26.12.2015 11:55 5,4 C 92 % 1032,3 hPa 0,0 l/m 1,8 km/h (1 Bft) N-NO 13 5 min 0,000 mm 0,7 UV-I 288 W/m 4,2 C 5,4 C 4,8 km/h (1 Bft) 98,31 %
26.12.2015 12:00 5,5 C 91 % 1032,2 hPa 0,0 l/m 1,2 km/h (1 Bft) N 10 5 min 0,101 mm 0,7 UV-I 288 W/m 4,2 C 5,5 C 3,2 km/h (1 Bft) 99,19 %
26.12.2015 12:05 5,6 C 91 % 1032,2 hPa 0,0 l/m 1,4 km/h (1 Bft) N 5 5 min 0,000 mm 0,7 UV-I 291 W/m 4,2 C 5,6 C 4,8 km/h (1 Bft) 98,21 %
26.12.2015 12:10 5,7 C 91 % 1032,1 hPa 0,0 l/m 1,6 km/h (1 Bft) N-NO 13 5 min 0,000 mm 0,7 UV-I 282 W/m 4,3 C 5,7 C 4,8 km/h (1 Bft) 98,31 %
26.12.2015 12:15 5,7 C 91 % 1032,1 hPa 0,0 l/m 2,7 km/h (1 Bft) N 10 5 min 0,000 mm 0,7 UV-I 286 W/m 4,3 C 5,7 C 6,4 km/h (2 Bft) 98,33 %
26.12.2015 12:20 5,7 C 90 % 1032,0 hPa 0,0 l/m 3,0 km/h (1 Bft) N-NO 29 5 min 0,000 mm 0,7 UV-I 286 W/m 4,2 C 5,7 C 6,4 km/h (2 Bft) 96,61 %
26.12.2015 12:25 5,7 C 90 % 1032,0 hPa 0,0 l/m 3,2 km/h (1 Bft) N-NO 30 5 min 0,000 mm 0,7 UV-I 285 W/m 4,2 C 5,7 C 4,8 km/h (1 Bft) 97,44 %
26.12.2015 12:30 5,8 C 90 % 1031,9 hPa 0,0 l/m 2,6 km/h (1 Bft) N-NO 15 5 min 0,000 mm 0,7 UV-I 287 W/m 4,3 C 5,8 C 4,8 km/h (1 Bft) 97,46 %
26.12.2015 12:35 6,0 C 89 % 1031,9 hPa 0,0 l/m 1,8 km/h (1 Bft) N-NO 14 5 min 0,000 mm 0,7 UV-I 287 W/m 4,3 C 6,0 C 4,8 km/h (1 Bft) 97,46 %
26.12.2015 12:40 6,1 C 89 % 1031,8 hPa 0,0 l/m 1,3 km/h (1 Bft) N-NO 14 5 min 0,000 mm 0,7 UV-I 284 W/m 4,4 C 6,1 C 3,2 km/h (1 Bft) 100,00 %
26.12.2015 12:45 6,3 C 87 % 1031,7 hPa 0,0 l/m 0,8 km/h (0 Bft) N-NO 14 5 min 0,000 mm 0,7 UV-I 281 W/m 4,3 C 6,3 C 3,2 km/h (1 Bft) 100,00 %
26.12.2015 12:50 6,4 C 88 % 1031,6 hPa 0,0 l/m 0,9 km/h (0 Bft) N-NO 14 5 min 0,000 mm 0,7 UV-I 278 W/m 4,6 C 6,4 C 3,2 km/h (1 Bft) 100,00 %
26.12.2015 12:55 6,8 C 87 % 1031,5 hPa 0,0 l/m 1,1 km/h (1 Bft) O-NO 78 5 min 0,000 mm 0,7 UV-I 272 W/m 4,8 C 6,8 C 3,2 km/h (1 Bft) 99,17 %
26.12.2015 13:00 7,2 C 85 % 1031,4 hPa 0,0 l/m 2,5 km/h (1 Bft) S-SW 203 5 min 0,000 mm 0,7 UV-I 268 W/m 4,9 C 7,2 C 6,4 km/h (2 Bft) 98,35 %
26.12.2015 13:05 7,6 C 85 % 1031,4 hPa 0,0 l/m 1,0 km/h (0 Bft) S-SW 193 5 min 0,127 mm 0,6 UV-I 267 W/m 5,2 C 7,6 C 3,2 km/h (1 Bft) 99,08 %
26.12.2015 13:10 7,8 C 83 % 1031,3 hPa 0,0 l/m 1,7 km/h (1 Bft) S 189 5 min 0,000 mm 0,6 UV-I 263 W/m 5,1 C 7,8 C 3,2 km/h (1 Bft) 99,15 %
26.12.2015 13:15 8,0 C 82 % 1031,2 hPa 0,0 l/m 2,4 km/h (1 Bft) SW 223 5 min 0,000 mm 0,6 UV-I 260 W/m 5,1 C 8,0 C 4,8 km/h (1 Bft) 98,35 %
26.12.2015 13:20 8,3 C 82 % 1031,2 hPa 0,0 l/m 2,9 km/h (1 Bft) SW 229 5 min 0,000 mm 0,6 UV-I 253 W/m 5,4 C 8,3 C 4,8 km/h (1 Bft) 99,19 %
26.12.2015 13:25 8,4 C 81 % 1031,2 hPa 0,0 l/m 2,9 km/h (1 Bft) W-SW 242 5 min 0,000 mm 0,6 UV-I 250 W/m 5,3 C 8,4 C 4,8 km/h (1 Bft) 99,06 %
26.12.2015 13:30 8,6 C 80 % 1031,2 hPa 0,0 l/m 2,7 km/h (1 Bft) W-SW 257 5 min 0,000 mm 0,6 UV-I 243 W/m 5,3 C 8,6 C 4,8 km/h (1 Bft) 100,00 %
26.12.2015 13:35 8,7 C 81 % 1031,2 hPa 0,0 l/m 0,9 km/h (0 Bft) W-SW 257 5 min 0,000 mm 0,5 UV-I 236 W/m 5,6 C 8,7 C 3,2 km/h (1 Bft) 100,00 %
26.12.2015 13:40 8,8 C 81 % 1031,1 hPa 0,0 l/m 0,7 km/h (0 Bft) W-SW 257 5 min 0,000 mm 0,5 UV-I 228 W/m 5,7 C 8,8 C 3,2 km/h (1 Bft) 96,69 %
26.12.2015 13:45 8,9 C 80 % 1031,1 hPa 0,0 l/m 0,5 km/h (0 Bft) W-SW 257 5 min 0,000 mm 0,5 UV-I 218 W/m 5,6 C 8,9 C 1,6 km/h (1 Bft) 97,44 %
26.12.2015 13:50 9,1 C 80 % 1031,1 hPa 0,0 l/m 0,4 km/h (0 Bft) W-SW 257 5 min 0,000 mm 0,5 UV-I 214 W/m 5,8 C 9,1 C 3,2 km/h (1 Bft) 98,31 %
26.12.2015 13:55 9,2 C 75 % 1031,0 hPa 0,0 l/m 0,1 km/h (0 Bft) W-SW 257 5 min 0,000 mm 0,5 UV-I 211 W/m 5,0 C 9,2 C 1,6 km/h (1 Bft) 95,41 %
26.12.2015 14:00 9,2 C 76 % 1031,0 hPa 0,0 l/m 0,3 km/h (0 Bft) SW 224 5 min 0,102 mm 0,0 UV-I 202 W/m 5,2 C 9,2 C 3,2 km/h (1 Bft) 96,67 %
26.12.2015 14:05 9,3 C 75 % 1030,9 hPa 0,0 l/m 1,0 km/h (0 Bft) SW 224 5 min 0,000 mm 0,0 UV-I 190 W/m 5,1 C 9,3 C 3,2 km/h (1 Bft) 97,46 %
26.12.2015 14:10 9,3 C 73 % 1030,8 hPa 0,0 l/m 0,4 km/h (0 Bft) SW 224 5 min 0,000 mm 0,0 UV-I 179 W/m 4,7 C 9,3 C 1,6 km/h (1 Bft) 100,00 %
26.12.2015 14:15 9,3 C 75 % 1030,8 hPa 0,0 l/m 0,5 km/h (0 Bft) W 273 5 min 0,000 mm 0,0 UV-I 175 W/m 5,1 C 9,3 C 3,2 km/h (1 Bft) 99,10 %
26.12.2015 14:20 9,2 C 80 % 1030,8 hPa 0,0 l/m 1,8 km/h (1 Bft) W-NW 291 5 min 0,000 mm 0,0 UV-I 170 W/m 5,9 C 9,2 C 3,2 km/h (1 Bft) 99,15 %
26.12.2015 14:25 9,4 C 78 % 1030,7 hPa 0,0 l/m 0,6 km/h (0 Bft) W-NW 291 5 min 0,000 mm 0,0 UV-I 160 W/m 5,8 C 9,4 C 1,6 km/h (1 Bft) 98,31 %
26.12.2015 14:30 9,4 C 78 % 1030,6 hPa 0,0 l/m 1,5 km/h (1 Bft) W-NW 291 5 min 0,000 mm 0,0 UV-I 151 W/m 5,8 C 9,4 C 3,2 km/h (1 Bft) 100,00 %
26.12.2015 14:35 9,6 C 76 % 1030,6 hPa 0,0 l/m 0,1 km/h (0 Bft) W-NW 291 5 min 0,000 mm 0,0 UV-I 142 W/m 5,6 C 9,6 C 1,6 km/h (1 Bft) 99,15 %
26.12.2015 14:40 9,5 C 78 % 1030,6 hPa 0,0 l/m 0,9 km/h (0 Bft) W-NW 291 5 min 0,000 mm 0,0 UV-I 132 W/m 5,9 C 9,5 C 1,6 km/h (1 Bft) 100,00 %
26.12.2015 14:45 9,3 C 78 % 1030,6 hPa 0,0 l/m 0,6 km/h (0 Bft) NW 316 5 min 0,000 mm 0,0 UV-I 122 W/m 5,7 C 9,3 C 3,2 km/h (1 Bft) 100,00 %
26.12.2015 14:50 9,2 C 80 % 1030,6 hPa 0,0 l/m 0,3 km/h (0 Bft) NW 317 5 min 0,000 mm 0,0 UV-I 112 W/m 5,9 C 9,2 C 1,6 km/h (1 Bft) 99,15 %
26.12.2015 14:55 9,3 C 78 % 1030,5 hPa 0,0 l/m 0,0 km/h (0 Bft) NW 317 5 min 0,000 mm 0,0 UV-I 104 W/m 5,7 C 9,3 C 1,6 km/h (1 Bft) 98,29 %
26.12.2015 15:00 9,6 C 77 % 1030,5 hPa 0,0 l/m 0,8 km/h (0 Bft) NW 317 5 min 0,076 mm 0,0 UV-I 95 W/m 5,8 C 9,6 C 3,2 km/h (1 Bft) 97,46 %
26.12.2015 15:05 9,6 C 78 % 1030,5 hPa 0,0 l/m 0,0 km/h (0 Bft) NW 317 5 min 0,000 mm 0,0 UV-I 86 W/m 6,0 C 9,6 C 1,6 km/h (1 Bft) 99,15 %
26.12.2015 15:10 9,3 C 78 % 1030,6 hPa 0,0 l/m 0,5 km/h (0 Bft) NW 317 5 min 0,000 mm 0,0 UV-I 77 W/m 5,7 C 9,3 C 1,6 km/h (1 Bft) 97,25 %
26.12.2015 15:15 9,2 C 79 % 1030,5 hPa 0,0 l/m 1,3 km/h (1 Bft) NW 317 5 min 0,000 mm 0,0 UV-I 69 W/m 5,8 C 9,2 C 3,2 km/h (1 Bft) 97,46 %
26.12.2015 15:20 9,2 C 79 % 1030,6 hPa 0,0 l/m 1,7 km/h (1 Bft) NW 317 0 min 0,000 mm 0,0 UV-I 60 W/m 5,8 C 9,2 C 3,2 km/h (1 Bft) 95,93 %
26.12.2015 15:25 9,1 C 80 % 1030,6 hPa 0,0 l/m 0,1 km/h (0 Bft) NW 317 0 min 0,000 mm 0,0 UV-I 52 W/m 5,8 C 9,1 C 1,6 km/h (1 Bft) 98,31 %
26.12.2015 15:30 8,6 C 81 % 1030,5 hPa 0,0 l/m 0,0 km/h (0 Bft) NW 317 0 min 0,000 mm 0,0 UV-I 43 W/m 5,5 C 8,6 C 0,0 km/h (0 Bft) 96,33 %
26.12.2015 15:35 8,1 C 83 % 1030,5 hPa 0,0 l/m 0,0 km/h (0 Bft) NW 317 0 min 0,000 mm 0,0 UV-I 35 W/m 5,4 C 8,1 C 0,0 km/h (0 Bft) 95,73 %
26.12.2015 15:40 7,8 C 85 % 1030,5 hPa 0,0 l/m 0,0 km/h (0 Bft) NW 317 0 min 0,000 mm 0,0 UV-I 28 W/m 5,4 C 7,8 C 1,6 km/h (1 Bft) 97,52 %
26.12.2015 15:45 8,1 C 83 % 1030,5 hPa 0,0 l/m 1,3 km/h (1 Bft) NW 317 0 min 0,000 mm 0,0 UV-I 22 W/m 5,4 C 8,1 C 3,2 km/h (1 Bft) 97,32 %
26.12.2015 15:50 7,3 C 85 % 1030,5 hPa 0,0 l/m 1,2 km/h (1 Bft) NW 317 0 min 0,000 mm 0,0 UV-I 18 W/m 4,9 C 7,3 C 3,2 km/h (1 Bft) 99,16 %
26.12.2015 15:55 7,2 C 86 % 1030,4 hPa 0,0 l/m 1,6 km/h (1 Bft) NW 317 0 min 0,000 mm 0,0 UV-I 17 W/m 5,0 C 7,2 C 3,2 km/h (1 Bft) 96,69 %
26.12.2015 16:00 6,5 C 89 % 1030,5 hPa 0,0 l/m 1,9 km/h (1 Bft) N-NW 328 5 min 0,026 mm 0,0 UV-I 14 W/m 4,8 C 6,5 C 3,2 km/h (1 Bft) 98,35 %
26.12.2015 16:05 6,4 C 90 % 1030,4 hPa 0,0 l/m 0,9 km/h (0 Bft) N-NW 328 0 min 0,000 mm 0,0 UV-I 12 W/m 4,9 C 6,4 C 1,6 km/h (1 Bft) 100,00 %
26.12.2015 16:10 6,2 C 90 % 1030,5 hPa 0,0 l/m 0,4 km/h (0 Bft) N-NW 328 0 min 0,000 mm 0,0 UV-I 10 W/m 4,7 C 6,2 C 1,6 km/h (1 Bft) 100,00 %
26.12.2015 16:15 6,2 C 90 % 1030,6 hPa 0,0 l/m 1,0 km/h (0 Bft) N-NW 328 0 min 0,000 mm 0,0 UV-I 8 W/m 4,7 C 6,2 C 3,2 km/h (1 Bft) 99,15 %
26.12.2015 16:20 6,3 C 89 % 1030,6 hPa 0,0 l/m 2,0 km/h (1 Bft) N 349 0 min 0,000 mm 0,0 UV-I 6 W/m 4,6 C 6,3 C 4,8 km/h (1 Bft) 97,46 %
26.12.2015 16:25 6,5 C 87 % 1030,6 hPa 0,0 l/m 2,3 km/h (1 Bft) N-NO 16 0 min 0,000 mm 0,0 UV-I 5 W/m 4,5 C 6,5 C 4,8 km/h (1 Bft) 98,37 %
26.12.2015 16:30 6,4 C 87 % 1030,6 hPa 0,0 l/m 3,7 km/h (1 Bft) N-NO 22 0 min 0,000 mm 0,0 UV-I 0 W/m 4,4 C 6,4 C 4,8 km/h (1 Bft) 99,13 %
26.12.2015 16:35 6,4 C 87 % 1030,6 hPa 0,0 l/m 3,6 km/h (1 Bft) N-NO 22 0 min 0,000 mm 0,0 UV-I 0 W/m 4,4 C 6,4 C 4,8 km/h (1 Bft) 98,31 %
26.12.2015 16:40 6,3 C 88 % 1030,6 hPa 0,0 l/m 3,1 km/h (1 Bft) N-NO 22 0 min 0,000 mm 0,0 UV-I 0 W/m 4,5 C 6,3 C 4,8 km/h (1 Bft) 100,00 %
26.12.2015 16:45 6,3 C 87 % 1030,6 hPa 0,0 l/m 2,4 km/h (1 Bft) N-NO 22 0 min 0,000 mm 0,0 UV-I 0 W/m 4,3 C 6,3 C 3,2 km/h (1 Bft) 99,15 %
26.12.2015 16:50 5,4 C 89 % 1030,7 hPa 0,0 l/m 1,3 km/h (1 Bft) N-NO 22 0 min 0,000 mm 0,0 UV-I 0 W/m 3,7 C 5,4 C 3,2 km/h (1 Bft) 100,00 %
26.12.2015 16:55 4,9 C 91 % 1030,7 hPa 0,0 l/m 0,6 km/h (0 Bft) N-NO 22 0 min 0,000 mm 0,0 UV-I 0 W/m 3,6 C 4,9 C 1,6 km/h (1 Bft) 100,00 %
26.12.2015 17:00 4,6 C 93 % 1030,7 hPa 0,0 l/m 0,5 km/h (0 Bft) N-NO 22 0 min 0,000 mm 0,0 UV-I 0 W/m 3,6 C 4,6 C 1,6 km/h (1 Bft) 99,15 %
26.12.2015 17:05 4,7 C 94 % 1030,7 hPa 0,0 l/m 0,0 km/h (0 Bft) N-NO 22 0 min 0,000 mm 0,0 UV-I 0 W/m 3,8 C 4,7 C 1,6 km/h (1 Bft) 99,15 %
26.12.2015 17:10 4,6 C 92 % 1030,6 hPa 0,0 l/m 0,5 km/h (0 Bft) N-NO 22 0 min 0,000 mm 0,0 UV-I 0 W/m 3,4 C 4,6 C 3,2 km/h (1 Bft) 100,00 %
26.12.2015 17:15 4,3 C 93 % 1030,6 hPa 0,0 l/m 0,5 km/h (0 Bft) N-NO 22 0 min 0,000 mm 0,0 UV-I 0 W/m 3,3 C 4,3 C 1,6 km/h (1 Bft) 99,15 %
26.12.2015 17:20 4,3 C 94 % 1030,6 hPa 0,0 l/m 0,6 km/h (0 Bft) N-NO 22 0 min 0,000 mm 0,0 UV-I 0 W/m 3,4 C 4,3 C 1,6 km/h (1 Bft) 96,23 %
26.12.2015 17:25 4,1 C 93 % 1030,7 hPa 0,0 l/m 0,3 km/h (0 Bft) N-NO 22 0 min 0,000 mm 0,0 UV-I 0 W/m 3,1 C 4,1 C 1,6 km/h (1 Bft) 95,45 %
26.12.2015 17:30 3,9 C 95 % 1030,6 hPa 0,0 l/m 1,2 km/h (1 Bft) N-NO 22 0 min 0,000 mm 0,0 UV-I 0 W/m 3,2 C 3,9 C 3,2 km/h (1 Bft) 97,52 %
26.12.2015 17:35 3,8 C 95 % 1030,6 hPa 0,0 l/m 3,2 km/h (1 Bft) SO 138 0 min 0,000 mm 0,0 UV-I 0 W/m 3,1 C 3,8 C 4,8 km/h (1 Bft) 97,44 %
26.12.2015 17:40 3,8 C 94 % 1030,6 hPa 0,0 l/m 2,8 km/h (1 Bft) SO 139 0 min 0,000 mm 0,0 UV-I 0 W/m 2,9 C 3,8 C 4,8 km/h (1 Bft) 96,33 %
26.12.2015 17:45 3,8 C 95 % 1030,7 hPa 0,0 l/m 3,9 km/h (1 Bft) S-SO 165 0 min 0,000 mm 0,0 UV-I 0 W/m 3,1 C 3,8 C 6,4 km/h (2 Bft) 98,31 %
26.12.2015 17:50 3,8 C 95 % 1030,7 hPa 0,0 l/m 2,8 km/h (1 Bft) S-SO 165 0 min 0,000 mm 0,0 UV-I 0 W/m 3,1 C 3,8 C 6,4 km/h (2 Bft) 95,83 %
26.12.2015 17:55 3,7 C 95 % 1030,7 hPa 0,0 l/m 2,9 km/h (1 Bft) S-SO 165 0 min 0,000 mm 0,0 UV-I 0 W/m 3,0 C 3,7 C 6,4 km/h (2 Bft) 97,52 %
26.12.2015 18:00 3,6 C 95 % 1030,7 hPa 0,0 l/m 2,4 km/h (1 Bft) S-SO 165 0 min 0,000 mm 0,0 UV-I 0 W/m 2,9 C 3,6 C 3,2 km/h (1 Bft) 97,17 %
26.12.2015 18:05 3,5 C 95 % 1030,7 hPa 0,0 l/m 1,4 km/h (1 Bft) S-SO 165 0 min 0,000 mm 0,0 UV-I 0 W/m 2,8 C 3,5 C 3,2 km/h (1 Bft) 99,15 %
26.12.2015 18:10 3,6 C 96 % 1030,7 hPa 0,0 l/m 0,2 km/h (0 Bft) S-SO 165 0 min 0,000 mm 0,0 UV-I 0 W/m 3,0 C 3,6 C 1,6 km/h (1 Bft) 98,31 %
26.12.2015 18:15 3,7 C 95 % 1030,8 hPa 0,0 l/m 0,0 km/h (0 Bft) S-SO 165 0 min 0,000 mm 0,0 UV-I 0 W/m 3,0 C 3,7 C 1,6 km/h (1 Bft) 99,15 %
26.12.2015 18:20 3,7 C 96 % 1030,7 hPa 0,0 l/m 1,3 km/h (1 Bft) S-SO 165 0 min 0,000 mm 0,0 UV-I 0 W/m 3,1 C 3,7 C 3,2 km/h (1 Bft) 100,00 %
26.12.2015 18:25 3,7 C 96 % 1030,7 hPa 0,0 l/m 2,2 km/h (1 Bft) S-SO 165 0 min 0,000 mm 0,0 UV-I 0 W/m 3,1 C 3,7 C 3,2 km/h (1 Bft) 98,35 %
26.12.2015 18:30 3,8 C 96 % 1030,8 hPa 0,0 l/m 2,0 km/h (1 Bft) S-SO 165 0 min 0,000 mm 0,0 UV-I 0 W/m 3,2 C 3,8 C 3,2 km/h (1 Bft) 95,73 %
26.12.2015 18:35 3,5 C 95 % 1030,7 hPa 0,0 l/m 3,1 km/h (1 Bft) S-SO 165 0 min 0,000 mm 0,0 UV-I 0 W/m 2,8 C 3,5 C 6,4 km/h (2 Bft) 99,17 %
26.12.2015 18:40 3,1 C 95 % 1030,6 hPa 0,0 l/m 4,2 km/h (1 Bft) S-SO 165 0 min 0,000 mm 0,0 UV-I 0 W/m 2,4 C 3,1 C 6,4 km/h (2 Bft) 100,00 %
26.12.2015 18:45 3,0 C 95 % 1030,6 hPa 0,0 l/m 5,1 km/h (1 Bft) S-SO 165 0 min 0,000 mm 0,0 UV-I 0 W/m 2,3 C 3,0 C 6,4 km/h (2 Bft) 98,29 %
26.12.2015 18:50 3,0 C 96 % 1030,7 hPa 0,0 l/m 4,2 km/h (1 Bft) S-SO 165 0 min 0,000 mm 0,0 UV-I 0 W/m 2,4 C 3,0 C 6,4 km/h (2 Bft) 99,15 %
26.12.2015 18:55 3,2 C 96 % 1030,7 hPa 0,0 l/m 4,6 km/h (1 Bft) S-SO 165 0 min 0,000 mm 0,0 UV-I 0 W/m 2,6 C 3,2 C 6,4 km/h (2 Bft) 99,17 %
26.12.2015 19:00 3,3 C 97 % 1030,7 hPa 0,0 l/m 3,4 km/h (1 Bft) S-SO 165 0 min 0,000 mm 0,0 UV-I 0 W/m 2,9 C 3,3 C 6,4 km/h (2 Bft) 99,15 %
26.12.2015 19:05 3,6 C 97 % 1030,8 hPa 0,0 l/m 2,8 km/h (1 Bft) S-SO 165 0 min 0,000 mm 0,0 UV-I 0 W/m 3,2 C 3,6 C 6,4 km/h (2 Bft) 99,15 %
26.12.2015 19:10 3,1 C 96 % 1030,7 hPa 0,0 l/m 4,5 km/h (1 Bft) S-SO 166 0 min 0,000 mm 0,0 UV-I 0 W/m 2,5 C 3,1 C 6,4 km/h (2 Bft) 98,29 %
26.12.2015 19:15 2,9 C 96 % 1030,7 hPa 0,0 l/m 5,0 km/h (1 Bft) S-SO 166 0 min 0,000 mm 0,0 UV-I 0 W/m 2,3 C 2,9 C 6,4 km/h (2 Bft) 98,35 %
26.12.2015 19:20 2,7 C 96 % 1030,7 hPa 0,0 l/m 5,4 km/h (1 Bft) S-SO 166 0 min 0,000 mm 0,0 UV-I 0 W/m 2,1 C 2,7 C 6,4 km/h (2 Bft) 99,15 %
26.12.2015 19:25 2,7 C 96 % 1030,7 hPa 0,0 l/m 5,8 km/h (2 Bft) S-SO 166 0 min 0,000 mm 0,0 UV-I 0 W/m 2,1 C 2,7 C 6,4 km/h (2 Bft) 100,00 %
26.12.2015 19:30 2,9 C 97 % 1030,7 hPa 0,0 l/m 3,8 km/h (1 Bft) S 183 0 min 0,000 mm 0,0 UV-I 0 W/m 2,5 C 2,9 C 6,4 km/h (2 Bft) 100,00 %
26.12.2015 19:35 3,1 C 97 % 1030,7 hPa 0,0 l/m 3,4 km/h (1 Bft) S 183 0 min 0,000 mm 0,0 UV-I 0 W/m 2,7 C 3,1 C 4,8 km/h (1 Bft) 100,00 %
26.12.2015 19:40 3,1 C 97 % 1030,7 hPa 0,0 l/m 3,2 km/h (1 Bft) S 183 0 min 0,000 mm 0,0 UV-I 0 W/m 2,7 C 3,1 C 4,8 km/h (1 Bft) 99,17 %
26.12.2015 19:45 3,4 C 97 % 1030,8 hPa 0,0 l/m 2,6 km/h (1 Bft) S 183 0 min 0,000 mm 0,0 UV-I 0 W/m 3,0 C 3,4 C 3,2 km/h (1 Bft) 95,76 %
26.12.2015 19:50 3,1 C 96 % 1030,8 hPa 0,0 l/m 1,6 km/h (1 Bft) S 183 0 min 0,000 mm 0,0 UV-I 0 W/m 2,5 C 3,1 C 3,2 km/h (1 Bft) 96,67 %
26.12.2015 19:55 2,9 C 96 % 1030,9 hPa 0,0 l/m 2,3 km/h (1 Bft) S 183 0 min 0,000 mm 0,0 UV-I 0 W/m 2,3 C 2,9 C 3,2 km/h (1 Bft) 96,33 %
26.12.2015 20:00 2,8 C 97 % 1030,9 hPa 0,0 l/m 0,9 km/h (0 Bft) S 183 0 min 0,000 mm 0,0 UV-I 0 W/m 2,4 C 2,8 C 3,2 km/h (1 Bft) 95,00 %
26.12.2015 20:05 3,1 C 97 % 1030,9 hPa 0,0 l/m 0,0 km/h (0 Bft) S 183 0 min 0,000 mm 0,0 UV-I 0 W/m 2,7 C 3,1 C 0,0 km/h (0 Bft) 95,76 %
26.12.2015 20:10 3,1 C 97 % 1031,0 hPa 0,0 l/m 0,0 km/h (0 Bft) S 183 0 min 0,000 mm 0,0 UV-I 0 W/m 2,7 C 3,1 C 0,0 km/h (0 Bft) 95,87 %
26.12.2015 20:15 2,6 C 96 % 1030,9 hPa 0,0 l/m 0,5 km/h (0 Bft) S 183 0 min 0,000 mm 0,0 UV-I 0 W/m 2,0 C 2,6 C 3,2 km/h (1 Bft) 97,44 %
26.12.2015 20:20 2,1 C 96 % 1031,0 hPa 0,0 l/m 1,7 km/h (1 Bft) S 183 0 min 0,000 mm 0,0 UV-I 0 W/m 1,5 C 2,1 C 3,2 km/h (1 Bft) 96,61 %
26.12.2015 20:25 2,3 C 97 % 1030,9 hPa 0,0 l/m 1,4 km/h (1 Bft) S 183 0 min 0,000 mm 0,0 UV-I 0 W/m 1,9 C 2,3 C 1,6 km/h (1 Bft) 97,17 %
26.12.2015 20:30 2,3 C 97 % 1031,0 hPa 0,0 l/m 0,3 km/h (0 Bft) S 183 0 min 0,000 mm 0,0 UV-I 0 W/m 1,9 C 2,3 C 1,6 km/h (1 Bft) 96,58 %
26.12.2015 20:35 2,7 C 97 % 1030,9 hPa 0,0 l/m 1,1 km/h (1 Bft) S 183 0 min 0,000 mm 0,0 UV-I 0 W/m 2,3 C 2,7 C 3,2 km/h (1 Bft) 100,00 %
26.12.2015 20:40 2,8 C 97 % 1031,1 hPa 0,0 l/m 2,2 km/h (1 Bft) W 264 0 min 0,000 mm 0,0 UV-I 0 W/m 2,4 C 2,8 C 3,2 km/h (1 Bft) 96,67 %
26.12.2015 20:45 2,2 C 96 % 1031,1 hPa 0,0 l/m 1,7 km/h (1 Bft) N-NO 24 0 min 0,000 mm 0,0 UV-I 0 W/m 1,6 C 2,2 C 4,8 km/h (1 Bft) 100,00 %
26.12.2015 20:50 2,6 C 97 % 1031,2 hPa 0,0 l/m 3,1 km/h (1 Bft) N-NO 31 0 min 0,000 mm 0,0 UV-I 0 W/m 2,2 C 2,6 C 4,8 km/h (1 Bft) 98,31 %
26.12.2015 20:55 2,6 C 97 % 1031,2 hPa 0,0 l/m 2,2 km/h (1 Bft) N-NO 31 0 min 0,000 mm 0,0 UV-I 0 W/m 2,2 C 2,6 C 3,2 km/h (1 Bft) 99,17 %
26.12.2015 21:00 2,3 C 96 % 1031,3 hPa 0,0 l/m 2,0 km/h (1 Bft) NO 42 0 min 0,000 mm 0,0 UV-I 0 W/m 1,7 C 2,3 C 3,2 km/h (1 Bft) 100,00 %
26.12.2015 21:05 1,7 C 96 % 1031,3 hPa 0,0 l/m 1,6 km/h (1 Bft) NO 49 0 min 0,000 mm 0,0 UV-I 0 W/m 1,1 C 1,7 C 3,2 km/h (1 Bft) 99,08 %
26.12.2015 21:10 1,6 C 97 % 1031,3 hPa 0,0 l/m 1,0 km/h (0 Bft) NO 53 0 min 0,000 mm 0,0 UV-I 0 W/m 1,2 C 1,6 C 3,2 km/h (1 Bft) 97,44 %
26.12.2015 21:15 1,7 C 97 % 1031,3 hPa 0,0 l/m 0,1 km/h (0 Bft) NO 53 0 min 0,000 mm 0,0 UV-I 0 W/m 1,3 C 1,7 C 1,6 km/h (1 Bft) 100,00 %
26.12.2015 21:20 1,8 C 97 % 1031,3 hPa 0,0 l/m 0,1 km/h (0 Bft) NO 53 0 min 0,000 mm 0,0 UV-I 0 W/m 1,4 C 1,8 C 1,6 km/h (1 Bft) 100,00 %
26.12.2015 21:25 1,5 C 97 % 1031,3 hPa 0,0 l/m 0,6 km/h (0 Bft) NO 53 0 min 0,000 mm 0,0 UV-I 0 W/m 1,1 C 1,5 C 1,6 km/h (1 Bft) 97,44 %
26.12.2015 21:30 1,7 C 97 % 1031,3 hPa 0,0 l/m 1,6 km/h (1 Bft) NO 53 0 min 0,000 mm 0,0 UV-I 0 W/m 1,3 C 1,7 C 3,2 km/h (1 Bft) 100,00 %
26.12.2015 21:35 1,9 C 98 % 1031,3 hPa 0,0 l/m 1,4 km/h (1 Bft) NO 53 0 min 0,000 mm 0,0 UV-I 0 W/m 1,6 C 1,9 C 3,2 km/h (1 Bft) 100,00 %
26.12.2015 21:40 1,9 C 98 % 1031,3 hPa 0,0 l/m 1,4 km/h (1 Bft) NO 53 0 min 0,000 mm 0,0 UV-I 0 W/m 1,6 C 1,9 C 3,2 km/h (1 Bft) 100,00 %
26.12.2015 21:45 1,7 C 97 % 1031,3 hPa 0,0 l/m 0,9 km/h (0 Bft) NO 53 0 min 0,000 mm 0,0 UV-I 0 W/m 1,3 C 1,7 C 3,2 km/h (1 Bft) 99,15 %
26.12.2015 21:50 1,6 C 97 % 1031,3 hPa 0,0 l/m 1,5 km/h (1 Bft) NO 53 0 min 0,000 mm 0,0 UV-I 0 W/m 1,2 C 1,6 C 3,2 km/h (1 Bft) 100,00 %
26.12.2015 21:55 1,7 C 98 % 1031,3 hPa 0,0 l/m 2,5 km/h (1 Bft) O-NO 74 0 min 0,000 mm 0,0 UV-I 0 W/m 1,4 C 1,7 C 4,8 km/h (1 Bft) 99,15 %
26.12.2015 22:00 1,4 C 97 % 1031,3 hPa 0,0 l/m 0,8 km/h (0 Bft) O-NO 76 0 min 0,000 mm 0,0 UV-I 0 W/m 1,0 C 1,4 C 3,2 km/h (1 Bft) 99,15 %
26.12.2015 22:05 1,1 C 97 % 1031,4 hPa 0,0 l/m 0,9 km/h (0 Bft) O-NO 76 0 min 0,000 mm 0,0 UV-I 0 W/m 0,7 C 1,1 C 3,2 km/h (1 Bft) 100,00 %
26.12.2015 22:10 1,0 C 97 % 1031,3 hPa 0,0 l/m 3,0 km/h (1 Bft) S-SO 147 0 min 0,000 mm 0,0 UV-I 0 W/m 0,6 C 1,0 C 4,8 km/h (1 Bft) 97,32 %
26.12.2015 22:15 1,0 C 97 % 1031,3 hPa 0,0 l/m 3,0 km/h (1 Bft) S-SO 163 0 min 0,000 mm 0,0 UV-I 0 W/m 0,6 C 1,0 C 4,8 km/h (1 Bft) 95,73 %
26.12.2015 22:20 0,9 C 98 % 1031,3 hPa 0,0 l/m 4,3 km/h (1 Bft) S-SW 197 0 min 0,000 mm 0,0 UV-I 0 W/m 0,6 C 0,9 C 6,4 km/h (2 Bft) 94,92 %
26.12.2015 22:25 1,1 C 98 % 1031,4 hPa 0,0 l/m 4,5 km/h (1 Bft) S-SW 197 0 min 0,000 mm 0,0 UV-I 0 W/m 0,8 C 1,1 C 4,8 km/h (1 Bft) 96,61 %
26.12.2015 22:30 1,1 C 98 % 1031,4 hPa 0,0 l/m 4,8 km/h (1 Bft) S-SW 197 0 min 0,000 mm 0,0 UV-I 0 W/m 0,8 C 1,1 C 6,4 km/h (2 Bft) 96,58 %
26.12.2015 22:35 1,1 C 98 % 1031,4 hPa 0,0 l/m 4,5 km/h (1 Bft) S 184 0 min 0,000 mm 0,0 UV-I 0 W/m 0,8 C 1,1 C 6,4 km/h (2 Bft) 96,61 %
26.12.2015 22:40 1,1 C 98 % 1031,3 hPa 0,0 l/m 5,3 km/h (1 Bft) S-SW 194 0 min 0,000 mm 0,0 UV-I 0 W/m 0,8 C 1,1 C 6,4 km/h (2 Bft) 95,73 %
26.12.2015 22:45 1,4 C 98 % 1031,3 hPa 0,0 l/m 5,7 km/h (1 Bft) S-SW 194 0 min 0,000 mm 0,0 UV-I 0 W/m 1,1 C 1,4 C 6,4 km/h (2 Bft) 97,46 %
26.12.2015 22:50 1,2 C 98 % 1031,3 hPa 0,0 l/m 4,7 km/h (1 Bft) S-SW 197 0 min 0,000 mm 0,0 UV-I 0 W/m 0,9 C 1,2 C 6,4 km/h (2 Bft) 97,52 %
26.12.2015 22:55 0,8 C 97 % 1031,4 hPa 0,0 l/m 4,2 km/h (1 Bft) S-SW 209 0 min 0,000 mm 0,0 UV-I 0 W/m 0,4 C 0,8 C 6,4 km/h (2 Bft) 96,58 %
26.12.2015 23:00 0,7 C 97 % 1031,4 hPa 0,0 l/m 6,1 km/h (2 Bft) S 180 0 min 0,000 mm 0,0 UV-I 0 W/m 0,3 C 0,7 C 8,0 km/h (2 Bft) 100,00 %
26.12.2015 23:05 0,9 C 98 % 1031,4 hPa 0,0 l/m 5,0 km/h (1 Bft) S 180 0 min 0,000 mm 0,0 UV-I 0 W/m 0,6 C 0,9 C 8,0 km/h (2 Bft) 97,46 %
26.12.2015 23:10 1,4 C 98 % 1031,4 hPa 0,0 l/m 3,3 km/h (1 Bft) S 179 0 min 0,000 mm 0,0 UV-I 0 W/m 1,1 C 1,4 C 4,8 km/h (1 Bft) 100,00 %
26.12.2015 23:15 1,7 C 98 % 1031,5 hPa 0,0 l/m 2,5 km/h (1 Bft) S 179 0 min 0,000 mm 0,0 UV-I 0 W/m 1,4 C 1,7 C 3,2 km/h (1 Bft) 100,00 %
26.12.2015 23:20 1,7 C 98 % 1031,5 hPa 0,0 l/m 1,0 km/h (0 Bft) S 179 0 min 0,000 mm 0,0 UV-I 0 W/m 1,4 C 1,7 C 3,2 km/h (1 Bft) 97,50 %
26.12.2015 23:25 2,0 C 97 % 1031,6 hPa 0,0 l/m 4,3 km/h (1 Bft) O-NO 62 0 min 0,000 mm 0,0 UV-I 0 W/m 1,6 C 2,0 C 8,0 km/h (2 Bft) 100,00 %
26.12.2015 23:30 1,9 C 96 % 1031,6 hPa 0,0 l/m 7,5 km/h (2 Bft) O-NO 59 0 min 0,000 mm 0,0 UV-I 0 W/m 1,3 C 0,8 C 12,9 km/h (3 Bft) 99,06 %
26.12.2015 23:35 1,9 C 97 % 1031,6 hPa 0,0 l/m 10,6 km/h (2 Bft) O 82 0 min 0,000 mm 0,0 UV-I 0 W/m 1,5 C -1,8 C 14,5 km/h (3 Bft) 100,00 %
26.12.2015 23:40 1,8 C 97 % 1031,6 hPa 0,0 l/m 6,3 km/h (2 Bft) O 97 0 min 0,000 mm 0,0 UV-I 0 W/m 1,4 C 1,8 C 11,3 km/h (2 Bft) 98,43 %
26.12.2015 23:45 1,1 C 94 % 1031,7 hPa 0,0 l/m 3,8 km/h (1 Bft) O-SO 113 0 min 0,000 mm 0,0 UV-I 0 W/m 0,2 C 1,1 C 6,4 km/h (2 Bft) 100,00 %
26.12.2015 23:50 0,9 C 96 % 1031,7 hPa 0,0 l/m 2,5 km/h (1 Bft) O-SO 117 0 min 0,000 mm 0,0 UV-I 0 W/m 0,3 C 0,9 C 4,8 km/h (1 Bft) 99,07 %
26.12.2015 23:55 0,6 C 96 % 1031,7 hPa 0,0 l/m 1,0 km/h (0 Bft) O-SO 117 0 min 0,000 mm 0,0 UV-I 0 W/m 0,0 C 0,6 C 3,2 km/h (1 Bft) 98,31 %
_ Min-Zeit 08:25 14:10 15:55 - 01:45 - - - - - - 08:25 23:35 03:05 22:20
Minimum _ -1,1 C 73 % 1030,4 hPa - 0,0 km/h (0 Bft) - - - - - - -1,5 C -1,8 C 0,0 km/h (0 Bft) 94,92 %
_ Max-Zeit 15:05 00:45 03:00 00:00 23:35 - - 08:10 13:05 11:15 12:05 15:05 14:35 23:35 00:45
Maximum _ 9,7 C 98 % 1033,6 hPa 0,0 l/m 10,6 km/h
O (2 Bft)
- - 5 min 0,127 mm 0,7 UV-I 291 W/m 6,0 C 9,6 C 14,5 km/h
O-NO (3 Bft)
100,00 %
Durchschnitt _ 2,8 C 94 % 1032,1 hPa #0,0 l/m 2,0 km/h (1 Bft) S-SO - #6:40 h #0,610 mm 0,6 UV-I 161 W/m 1,8 C 2,7 C 4,0 km/h (1 Bft) 98,35 %